Location: Middle Street
(51.7167°N, 0.0333°E)
Time: 02:25:44
(UTC+00:00)

Cosmos 2082 Rocket - Pass Details

Date: 20 January 2021
Orbit: 832 x 855 km, 71.0° (Epoch: 24 February)

Event Time Altitude Azimuth Distance (km) Brightness Sun altitude
Rises 17:46:51 0° 327° (NNW) 3,437 5.6 -11.9°
Reaches altitude 10° 17:50:16 10° 347° (NNW) 2,499 4.6 -12.4°
Maximum altitude 17:53:57 17° 27° (NNE) 2,040 3.8 -13.0°
Enters shadow 17:55:40 15° 49° (NE) 2,149 3.8 -13.2°
